M I D A S
Marine Information and Data Acquisition System
Tripno 731 of the Zeeleeuw from 2004-06-08 06:06:44 to 2004-06-08 15:33:51
Back to CruiseResearch ActivitiesStationsMapUnderway DataData graphs

EquipmentUnitsComments
TimeDGPSUTC
LatitudeDGPSDM.mWGS84
LongitudeDGPSDM.mWGS84
SpeedMeteo Stationm/sRelative wind speed
DirectionMeteo StationdegRelative wind direction
TemperatureMeteo Stationdeg CelciusAir temperature
PressureMeteo StationPaAtmospheric pressure
HumidityMeteo Station%Relative humidity
Missing or incorrect values are displayed as -999
Metereological data collected by the RV Zeeleeuw from 2004-06-08 06:06:44 to 2004-06-08 15:33:51
Time Latitude Longitude Speed Direction Temperature Pressure Humidity
2004-06-08 06:07 51°13.599 2°56.098 4 67 19.7 101820 73
2004-06-08 06:08 51°13.605 2°56.062 1.6 73 19.8 101820 73
2004-06-08 06:09 51°13.639 2°55.941 2.5 128 19.8 101830 73
2004-06-08 06:10 51°13.675 2°55.808 4.5 135 19.9 101830 73
2004-06-08 06:11 51°13.694 2°55.76 2.8 138 20 101820 72
2004-06-08 06:12 51°13.693 2°55.76 2.2 148 20 101820 72
2004-06-08 06:13 51°13.743 2°55.719 2 228 20.1 101820 72
2004-06-08 06:14 51°13.846 2°55.633 0.5 219 20.2 101820 71
2004-06-08 06:15 51°13.971 2°55.56 0.3 211 20.3 101820 71
2004-06-08 06:16 51°14.103 2°55.47 0.7 315 20.4 101820 70
2004-06-08 06:17 51°14.251 2°55.297 3.8 326 20.5 101820 70
2004-06-08 06:18 51°14.374 2°55.05 4.6 327 20.6 101820 69
2004-06-08 06:19 51°14.502 2°54.775 4.3 351 20.7 101810 68
2004-06-08 06:21 51°14.702 2°54.452 5.3 5 20.7 101820 68
2004-06-08 06:22 51°14.842 2°54.197 5.2 357 20.6 101820 68
2004-06-08 06:23 51°14.964 2°53.894 5.5 346 20.5 101820 69
2004-06-08 06:24 51°15.068 2°53.593 5.5 321 20.4 101820 70
2004-06-08 06:25 51°15.175 2°53.291 4.5 329 20.4 101820 70
2004-06-08 06:26 51°15.286 2°52.989 5.6 334 20.4 101820 70
2004-06-08 06:27 51°15.402 2°52.682 5.1 336 20.4 101820 70
2004-06-08 06:28 51°15.444 2°52.348 6.5 342 20.3 101820 71
2004-06-08 06:29 51°15.464 2°52.006 7.1 345 20.1 101820 72
2004-06-08 06:30 51°15.451 2°51.666 6.9 344 19.9 101830 73
2004-06-08 06:31 51°15.421 2°51.329 7.5 346 19.7 101820 74
2004-06-08 06:32 51°15.392 2°50.988 7.1 350 19.5 101830 76
2004-06-08 06:33 51°15.339 2°50.608 7.1 343 19.3 101830 77
2004-06-08 06:34 51°15.291 2°50.249 7.5 346 19.2 101830 78
2004-06-08 06:35 51°15.254 2°49.917 7.9 336 19.1 101820 78
2004-06-08 06:36 51°15.217 2°49.573 7.6 335 19.1 101820 78
2004-06-08 06:37 51°15.178 2°49.234 8.8 330 19.1 101820 78
2004-06-08 06:38 51°15.141 2°48.897 8.3 335 19.1 101820 78
2004-06-08 06:39 51°15.103 2°48.555 7.7 336 19.1 101830 78
2004-06-08 06:40 51°15.064 2°48.207 8.3 334 19.1 101830 78
2004-06-08 06:41 51°15.028 2°47.865 8.9 329 19.1 101830 78
2004-06-08 06:42 51°14.994 2°47.516 8.8 330 19.1 101830 78
2004-06-08 06:43 51°14.959 2°47.175 8.4 331 19.1 101830 78
2004-06-08 06:44 51°14.923 2°46.814 8.6 331 19.1 101830 78
2004-06-08 06:45 51°14.888 2°46.451 8.8 330 19.1 101840 78
2004-06-08 06:46 51°14.855 2°46.106 8.8 330 19 101830 78
2004-06-08 06:47 51°14.815 2°45.768 8.3 332 18.9 101830 79
2004-06-08 06:48 51°14.765 2°45.371 8.4 332 18.9 101830 79
2004-06-08 06:49 51°14.722 2°45.025 8.5 330 18.9 101830 79
2004-06-08 06:50 51°14.681 2°44.691 8.2 335 18.8 101830 79
2004-06-08 06:51 51°14.635 2°44.312 8 335 18.8 101840 79
2004-06-08 06:52 51°14.592 2°43.97 7.2 335 18.9 101840 79
2004-06-08 06:53 51°14.552 2°43.631 7.3 334 18.9 101840 79
2004-06-08 06:54 51°14.513 2°43.285 7.7 338 18.8 101840 79
2004-06-08 06:55 51°14.471 2°42.936 7.5 335 18.8 101830 79
2004-06-08 06:56 51°14.431 2°42.591 8.7 334 18.7 101830 79
2004-06-08 06:57 51°14.391 2°42.223 8.7 331 18.7 101830 80
2004-06-08 06:58 51°14.352 2°41.883 8.8 333 18.7 101830 80
2004-06-08 06:59 51°14.307 2°41.538 8.7 335 18.8 101830 79
2004-06-08 07:00 51°14.275 2°41.187 8.3 330 18.8 101840 79
2004-06-08 07:01 51°14.255 2°40.801 7.3 334 18.8 101840 79
2004-06-08 07:02 51°14.236 2°40.432 8.1 331 18.8 101830 80
2004-06-08 07:03 51°14.218 2°40.071 7.9 332 18.8 101840 80
2004-06-08 07:04 51°14.202 2°39.716 7.6 331 18.8 101840 80
2004-06-08 07:05 51°14.187 2°39.365 7.7 328 18.8 101840 80
2004-06-08 07:06 51°14.169 2°39.022 8.4 328 18.8 101840 80
2004-06-08 07:07 51°14.151 2°38.662 8.5 330 18.8 101840 79
2004-06-08 07:08 51°14.113 2°38.316 8.9 332 18.8 101840 79
2004-06-08 07:10 51°14.057 2°37.942 9.2 335 18.9 101840 79
2004-06-08 07:11 51°13.973 2°37.602 8.8 338 18.9 101840 79
2004-06-08 07:12 51°13.891 2°37.273 9 337 18.9 101840 78
2004-06-08 07:13 51°13.811 2°36.947 8.2 340 18.8 101840 78
2004-06-08 07:14 51°13.725 2°36.615 7.8 345 18.8 101840 79
2004-06-08 07:15 51°13.616 2°36.275 7.8 346 18.5 101850 79
2004-06-08 07:16 51°13.518 2°35.969 8.5 346 18.3 101840 80
2004-06-08 07:17 51°13.419 2°35.652 9.1 344 18.1 101840 81
2004-06-08 07:18 51°13.322 2°35.345 8.7 343 18 101840 82
2004-06-08 07:19 51°13.212 2°35.033 8.7 341 18.1 101840 82
2004-06-08 07:20 51°13.106 2°34.73 8.6 342 18.3 101840 81
2004-06-08 07:21 51°13.001 2°34.434 9 342 18.5 101840 80
2004-06-08 07:22 51°12.891 2°34.122 8.5 342 18.6 101840 79
2004-06-08 07:23 51°12.777 2°33.793 8.2 345 18.6 101840 79
2004-06-08 07:24 51°12.671 2°33.491 8.2 345 18.5 101850 79
2004-06-08 07:25 51°12.566 2°33.183 8.1 346 18.4 101850 80
2004-06-08 07:26 51°12.466 2°32.845 7.8 343 18.3 101840 80
2004-06-08 07:27 51°12.377 2°32.522 8.8 343 18.3 101840 80
2004-06-08 07:28 51°12.296 2°32.225 8.2 343 18.4 101840 80
2004-06-08 07:29 51°12.204 2°31.888 8.7 342 18.5 101840 80
2004-06-08 07:30 51°12.112 2°31.56 8.5 342 18.6 101840 79
2004-06-08 07:31 51°12.022 2°31.242 8.7 342 18.7 101840 79
2004-06-08 07:32 51°11.929 2°30.912 8.3 342 18.8 101840 79
2004-06-08 07:33 51°11.839 2°30.59 8.6 344 18.8 101840 78
2004-06-08 07:34 51°11.746 2°30.26 8.2 344 18.9 101840 78
2004-06-08 07:35 51°11.653 2°29.929 8 345 18.8 101840 78
2004-06-08 07:36 51°11.563 2°29.596 7.5 344 18.8 101840 78
2004-06-08 07:37 51°11.489 2°29.2 7.6 343 18.7 101840 78
2004-06-08 07:38 51°11.424 2°28.861 7.3 343 18.6 101840 79
2004-06-08 07:39 51°11.353 2°28.493 8 340 18.5 101850 79
2004-06-08 07:40 51°11.28 2°28.111 7.4 343 18.5 101840 79
2004-06-08 07:41 51°11.215 2°27.765 7.5 342 18.5 101850 79
2004-06-08 07:42 51°11.149 2°27.413 8.3 337 18.5 101840 80
2004-06-08 07:43 51°11.097 2°27.048 7.8 336 18.5 101840 80
2004-06-08 07:44 51°11.045 2°26.692 7.9 335 18.6 101840 80
2004-06-08 07:45 51°10.993 2°26.337 7.5 336 18.7 101840 80
2004-06-08 07:46 51°10.942 2°25.98 7.7 338 18.7 101840 80
2004-06-08 07:47 51°10.89 2°25.623 7.4 339 18.8 101840 80
2004-06-08 07:48 51°10.838 2°25.263 7.5 340 18.8 101840 80
2004-06-08 07:49 51°10.781 2°24.912 7.6 339 18.8 101840 79
2004-06-08 07:50 51°10.695 2°24.565 8.3 341 18.8 101840 79
2004-06-08 07:51 51°10.581 2°24.248 8.2 339 18.8 101840 79
2004-06-08 07:52 51°10.466 2°23.931 8.5 340 18.8 101840 79
2004-06-08 07:53 51°10.357 2°23.607 8.4 339 18.8 101840 79
2004-06-08 07:54 51°10.24 2°23.25 8.6 338 18.7 101840 80
2004-06-08 07:55 51°10.134 2°22.924 8.2 338 18.9 101830 80
2004-06-08 07:56 51°10.028 2°22.597 8.4 339 19 101830 79
2004-06-08 07:57 51°9.924 2°22.275 8.4 339 19.2 101830 79
2004-06-08 07:58 51°9.819 2°21.945 8.3 339 19.3 101830 78
2004-06-08 07:59 51°9.712 2°21.607 7.9 339 19.3 101830 77
2004-06-08 08:00 51°9.608 2°21.275 8.2 338 19.4 101830 77
2004-06-08 08:01 51°9.505 2°20.947 8.5 338 19.4 101830 76
2004-06-08 08:02 51°9.398 2°20.607 8.3 338 19.5 101820 76
2004-06-08 08:03 51°9.299 2°20.267 7.9 336 19.6 101820 75
2004-06-08 08:04 51°9.217 2°19.912 7.7 335 19.8 101830 74
2004-06-08 08:05 51°9.135 2°19.556 7.9 333 20 101820 73
2004-06-08 08:06 51°9.052 2°19.198 8 334 20.2 101820 72
2004-06-08 08:07 51°9.008 2°18.774 7 329 20.2 101820 71
2004-06-08 08:08 51°9.01 2°18.388 5.9 330 20.3 101820 71
2004-06-08 08:09 51°9.012 2°18.004 6.3 330 20.2 101820 71
2004-06-08 08:10 51°9.024 2°17.625 6.1 331 20.2 101820 72
2004-06-08 08:11 51°9.046 2°17.249 6 332 20.2 101820 72
2004-06-08 08:12 51°9.065 2°16.875 5.9 335 20.1 101820 72
2004-06-08 08:13 51°9.088 2°16.5 5.8 336 19.9 101820 73
2004-06-08 08:14 51°9.11 2°16.123 6.4 339 19.9 101820 73
2004-06-08 08:15 51°9.133 2°15.742 6.4 337 20 101820 74
2004-06-08 08:16 51°9.147 2°15.357 6.9 340 20.1 101820 73
2004-06-08 08:17 51°9.114 2°14.977 7.7 341 20.3 101820 73
2004-06-08 08:18 51°9.038 2°14.613 7.7 344 20.4 101820 72
2004-06-08 08:19 51°8.943 2°14.261 7.6 347 20.4 101820 71
2004-06-08 08:20 51°8.8 2°13.961 8.8 350 20.4 101810 71
2004-06-08 08:21 51°8.647 2°13.671 9.1 349 20.3 101810 71
2004-06-08 08:22 51°8.502 2°13.369 7.9 350 20 101810 71
2004-06-08 08:23 51°8.353 2°13.077 8.7 347 19.9 101810 73
2004-06-08 08:24 51°8.196 2°12.795 8.3 349 20.1 101810 73
2004-06-08 08:25 51°8.037 2°12.52 8 347 20.5 101800 71
2004-06-08 08:26 51°7.868 2°12.226 7.8 348 20.8 101810 70
2004-06-08 08:27 51°7.711 2°11.949 7.6 348 20.9 101800 69
2004-06-08 08:28 51°7.556 2°11.678 7.3 349 21 101810 68
2004-06-08 08:29 51°7.396 2°11.4 7.7 348 21 101810 68
2004-06-08 08:30 51°7.241 2°11.123 7.9 345 20.9 101810 69
2004-06-08 08:31 51°7.089 2°10.849 7.9 346 20.8 101810 70
2004-06-08 08:32 51°6.93 2°10.566 7.9 345 20.8 101800 71
2004-06-08 08:33 51°6.771 2°10.282 7.8 344 20.8 101800 72
2004-06-08 08:34 51°6.615 2°10.002 7.9 341 20.6 101800 72
2004-06-08 08:35 51°6.482 2°9.766 7.1 332 20.6 101810 73
2004-06-08 08:36 51°6.406 2°9.592 4.9 307 20.7 101810 73
2004-06-08 08:37 51°6.39 2°9.452 4 271 20.8 101810 73
2004-06-08 08:38 51°6.395 2°9.341 2.8 249 20.8 101810 72
2004-06-08 08:39 51°6.408 2°9.253 3 238 20.9 101810 72
2004-06-08 08:40 51°6.399 2°9.138 4.7 314 21.1 101820 72
2004-06-08 08:41 51°6.358 2°9.058 5.2 319 21.2 101810 71
2004-06-08 08:42 51°6.32 2°8.988 4.9 43 21.2 101810 71
2004-06-08 08:43 51°6.287 2°8.922 4.6 313 21.2 101810 71
2004-06-08 08:44 51°6.26 2°8.854 4.3 299 21.3 101810 71
2004-06-08 08:45 51°6.238 2°8.784 4.3 297 21.5 101810 71
2004-06-08 08:46 51°6.215 2°8.717 4.3 300 21.7 101810 70
2004-06-08 08:47 51°6.191 2°8.653 4.3 301 21.9 101810 69
2004-06-08 08:48 51°6.165 2°8.59 4 306 22.1 101810 68
2004-06-08 08:49 51°6.139 2°8.53 4.3 308 22.4 101810 67
2004-06-08 08:50 51°6.111 2°8.472 4.2 308 22.6 101820 66
2004-06-08 08:51 51°6.082 2°8.415 4 309 22.8 101820 65
2004-06-08 08:52 51°6.054 2°8.358 4 305 23 101810 65
2004-06-08 08:53 51°6.026 2°8.3 3.6 303 23.1 101810 65
2004-06-08 08:54 51°5.999 2°8.239 3.5 299 23.2 101820 64
2004-06-08 08:55 51°5.973 2°8.177 3.7 292 23.2 101820 65
2004-06-08 08:56 51°5.948 2°8.115 3.9 290 23.2 101820 67
2004-06-08 08:57 51°5.922 2°8.052 3.8 286 23.2 101820 64
2004-06-08 08:58 51°5.9 2°7.988 3.3 276 23.2 101810 63
2004-06-08 08:59 51°5.882 2°7.922 3.3 269 23.1 101820 64
2004-06-08 09:00 51°5.866 2°7.854 2.8 264 23 101820 65
2004-06-08 09:01 51°5.852 2°7.787 2.4 264 22.9 101820 65
2004-06-08 09:02 51°5.835 2°7.714 3 262 22.8 101820 65
2004-06-08 09:03 51°5.817 2°7.639 2.4 263 22.6 101820 66
2004-06-08 09:04 51°5.803 2°7.57 1.9 262 22.4 101820 67
2004-06-08 09:05 51°5.789 2°7.506 2.3 260 22.5 101820 67
2004-06-08 09:06 51°5.773 2°7.439 2.3 260 22.4 101820 67
2004-06-08 09:07 51°5.758 2°7.374 2.3 260 22.3 101820 67
2004-06-08 09:08 51°5.744 2°7.312 2.6 264 22.2 101810 68
2004-06-08 09:09 51°5.731 2°7.249 1.5 262 22.2 101820 68
2004-06-08 09:10 51°5.718 2°7.177 1.3 257 22.3 101810 68
2004-06-08 09:11 51°5.71 2°7.094 1.2 256 22.3 101810 67
2004-06-08 09:12 51°5.702 2°7.003 1 244 22.4 101820 67
2004-06-08 09:13 51°5.699 2°6.92 1 244 22.6 101820 67
2004-06-08 09:14 51°5.699 2°6.834 0.8 243 22.8 101820 66
2004-06-08 09:15 51°5.71 2°6.743 0.3 219 23 101820 64
2004-06-08 09:16 51°5.736 2°6.649 0.9 82 22.7 101820 63
2004-06-08 09:17 51°5.771 2°6.56 1.6 63 22.1 101820 66
2004-06-08 09:18 51°5.798 2°6.49 1.4 76 21.4 101820 70
2004-06-08 09:19 51°5.82 2°6.433 1.7 85 21 101820 71
2004-06-08 09:20 51°5.836 2°6.382 1.6 77 20.8 101820 73
2004-06-08 09:21 51°5.86 2°6.338 2.5 41 20.6 101820 73
2004-06-08 09:22 51°5.9 2°6.354 3.1 31 20.5 101820 74
2004-06-08 09:23 51°5.925 2°6.398 3.9 20 20.6 101820 74
2004-06-08 09:24 51°5.942 2°6.461 3.8 19 20.5 101810 74
2004-06-08 09:25 51°5.953 2°6.54 4 21 20.5 101820 74
2004-06-08 09:26 51°5.956 2°6.611 3.7 22 20.6 101820 74
2004-06-08 09:27 51°5.957 2°6.677 3.9 21 20.7 101820 74
2004-06-08 09:28 51°5.958 2°6.736 3.9 23 20.7 101810 73
2004-06-08 09:29 51°5.96 2°6.797 3.9 25 20.7 101810 73
2004-06-08 09:30 51°5.961 2°6.861 3.9 25 20.8 101810 73
2004-06-08 09:31 51°5.966 2°6.923 4.1 24 20.9 101810 72
2004-06-08 09:32 51°5.974 2°6.985 4.6 19 20.8 101810 72
2004-06-08 09:33 51°5.982 2°7.052 4.5 28 20.6 101810 72
2004-06-08 09:34 51°5.99 2°7.115 4 28 20.5 101810 72
2004-06-08 09:35 51°5.999 2°7.18 4.4 27 20.4 101810 72
2004-06-08 09:36 51°6.008 2°7.246 4.6 30 20.3 101810 73
2004-06-08 09:37 51°6.017 2°7.31 4.3 31 20.2 101810 75
2004-06-08 09:38 51°6.026 2°7.376 4 30 20.5 101820 74
2004-06-08 09:39 51°6.034 2°7.439 4 31 20.8 101810 72
2004-06-08 09:40 51°6.043 2°7.503 4.5 22 21 101810 71
2004-06-08 09:41 51°6.05 2°7.567 4.2 32 21.2 101820 70
2004-06-08 09:43 51°6.058 2°7.633 4.5 27 21.4 101820 68
2004-06-08 09:43 51°6.067 2°7.696 4.6 27 21.5 101820 68
2004-06-08 09:44 51°6.075 2°7.763 4.6 25 21.6 101810 68
2004-06-08 09:45 51°6.083 2°7.828 4.7 24 21.7 101810 68
2004-06-08 09:46 51°6.092 2°7.897 5 26 21.9 101820 67
2004-06-08 09:47 51°6.098 2°7.961 4.8 25 22.1 101820 66
2004-06-08 09:49 51°6.107 2°8.03 4.5 26 22.4 101820 65
2004-06-08 09:50 51°6.115 2°8.096 4.7 31 22.6 101820 64
2004-06-08 09:51 51°6.124 2°8.169 5 28 22.8 101810 63
2004-06-08 09:52 51°6.133 2°8.235 4.9 26 22.8 101810 62
2004-06-08 09:53 51°6.144 2°8.312 4.8 23 22.7 101810 63
2004-06-08 09:54 51°6.157 2°8.38 4.7 38 22.9 101820 62
2004-06-08 09:55 51°6.183 2°8.433 4.8 42 22.7 101810 62
2004-06-08 09:56 51°6.207 2°8.487 5 36 22.5 101810 64
2004-06-08 09:57 51°6.223 2°8.548 5 34 22.4 101810 65
2004-06-08 09:58 51°6.243 2°8.605 4.9 38 22.3 101810 65
2004-06-08 09:59 51°6.269 2°8.652 4.8 45 22.4 101810 64
2004-06-08 10:00 51°6.297 2°8.674 3.9 72 22.5 101810 64
2004-06-08 10:01 51°6.32 2°8.666 3.9 81 22.5 101810 64
2004-06-08 10:02 51°6.34 2°8.64 3.6 99 22.2 101810 65
2004-06-08 10:03 51°6.358 2°8.603 3.4 112 22 101810 66
2004-06-08 10:04 51°6.376 2°8.552 3.3 129 21.8 101810 67
2004-06-08 10:05 51°6.389 2°8.484 2.9 149 21.6 101820 67
2004-06-08 10:06 51°6.396 2°8.398 2.5 174 21.5 101820 68
2004-06-08 10:07 51°6.39 2°8.315 2.3 214 21.8 101810 68
2004-06-08 10:08 51°6.368 2°8.224 2.1 247 22.3 101820 65
2004-06-08 10:09 51°6.338 2°8.154 3.9 268 22.7 101810 63
2004-06-08 10:10 51°6.299 2°8.094 3.9 290 22.8 101810 63
2004-06-08 10:11 51°6.264 2°8.054 4 303 22.8 101820 62
2004-06-08 10:12 51°6.228 2°8.024 3.6 328 22.8 101810 62
2004-06-08 10:13 51°6.194 2°8.007 4.3 353 23 101810 62
2004-06-08 10:14 51°6.165 2°8.001 3.7 16 23.1 101810 61
2004-06-08 10:15 51°6.149 2°8.001 3.6 39 23.2 101810 61
2004-06-08 10:16 51°6.169 2°8.034 6.1 39 23.1 101810 61
2004-06-08 10:17 51°6.255 2°8.25 8.5 27 22.8 101800 62
2004-06-08 10:18 51°6.352 2°8.505 9.7 24 22.7 101800 63
2004-06-08 10:19 51°6.454 2°8.769 9.4 26 22.2 101800 64
2004-06-08 10:20 51°6.554 2°9.029 10.4 22 21.9 101800 65
2004-06-08 10:21 51°6.647 2°9.289 9.6 22 21.6 101800 66
2004-06-08 10:22 51°6.736 2°9.552 9.3 23 21.6 101800 66
2004-06-08 10:23 51°6.831 2°9.828 9.4 22 21.6 101800 65
2004-06-08 10:24 51°6.918 2°10.101 9.1 22 21.5 101800 66
2004-06-08 10:25 51°6.999 2°10.378 9.4 24 21.8 101800 65
2004-06-08 10:26 51°7.082 2°10.662 9.2 23 21.9 101800 65
2004-06-08 10:27 51°7.161 2°10.933 10 22 22.1 101810 63
2004-06-08 10:28 51°7.222 2°11.124 5.8 42 22 101810 64
2004-06-08 10:29 51°7.269 2°11.169 3.5 71 22 101820 64
2004-06-08 10:30 51°7.314 2°11.186 4.7 60 21.8 101810 65
2004-06-08 10:31 51°7.345 2°11.23 5.6 44 21.7 101810 66
2004-06-08 10:32 51°7.369 2°11.283 5 44 21.6 101810 66
2004-06-08 10:33 51°7.395 2°11.338 4.6 48 21.8 101810 65
2004-06-08 10:34 51°7.421 2°11.39 4.4 48 22.1 101810 64
2004-06-08 10:35 51°7.447 2°11.442 5.1 43 22.3 101810 63
2004-06-08 10:36 51°7.473 2°11.496 5.7 43 22.2 101810 64
2004-06-08 10:37 51°7.497 2°11.55 5.2 39 22 101810 65
2004-06-08 10:38 51°7.516 2°11.608 6.2 39 22 101810 64
2004-06-08 10:39 51°7.533 2°11.665 4.9 37 21.8 101810 66
2004-06-08 10:40 51°7.551 2°11.726 4.9 40 21.9 101810 65
2004-06-08 10:41 51°7.571 2°11.785 4.9 41 22.1 101810 63
2004-06-08 10:42 51°7.591 2°11.843 4.9 43 22.3 101810 63
2004-06-08 10:43 51°7.611 2°11.903 4.5 39 22.4 101800 62
2004-06-08 10:44 51°7.629 2°11.962 4.9 40 22.4 101810 62
2004-06-08 10:45 51°7.65 2°12.022 4.6 41 22.1 101800 64
2004-06-08 10:46 51°7.67 2°12.082 5.1 38 21.9 101800 65
2004-06-08 10:47 51°7.69 2°12.142 4.6 35 21.9 101800 65
2004-06-08 10:48 51°7.71 2°12.204 5.4 34 21.9 101800 65
2004-06-08 10:49 51°7.73 2°12.265 5.6 42 21.7 101800 66
2004-06-08 10:50 51°7.753 2°12.329 4.8 42 21.7 101790 65
2004-06-08 10:51 51°7.771 2°12.385 4.8 41 21.8 101800 65
2004-06-08 10:52 51°7.794 2°12.449 5 39 22 101790 64
2004-06-08 10:53 51°7.816 2°12.511 4.5 43 22 101790 64
2004-06-08 10:54 51°7.84 2°12.574 5 46 22.1 101790 64
2004-06-08 10:55 51°7.863 2°12.636 4.4 48 22.1 101790 64
2004-06-08 10:56 51°7.886 2°12.699 5.1 45 22.2 101790 63
2004-06-08 10:57 51°7.91 2°12.761 3.9 49 22 101790 64
2004-06-08 10:58 51°7.934 2°12.824 3.8 52 22.1 101790 64
2004-06-08 10:59 51°7.96 2°12.884 4.1 53 22.2 101790 63
2004-06-08 11:00 51°7.993 2°12.938 4.2 48 22.1 101790 64
2004-06-08 11:01 51°8.025 2°12.992 3.9 52 21.8 101790 65
2004-06-08 11:02 51°8.052 2°13.049 3.9 47 21.9 101790 65
2004-06-08 11:03 51°8.079 2°13.108 4 47 21.9 101790 64
2004-06-08 11:04 51°8.103 2°13.167 4 44 22 101790 64
2004-06-08 11:05 51°8.125 2°13.227 3.9 43 22 101790 64
2004-06-08 11:06 51°8.143 2°13.28 3.3 54 21.9 101790 64
2004-06-08 11:08 51°8.168 2°13.304 2.5 87 21.8 101790 64
2004-06-08 11:09 51°8.189 2°13.303 3.3 88 21.9 101790 64
2004-06-08 11:10 51°8.227 2°13.307 4.8 77 21.9 101790 64
2004-06-08 11:10 51°8.28 2°13.313 3.3 68 21.5 101790 66
2004-06-08 11:12 51°8.33 2°13.32 3 70 21.4 101790 67
2004-06-08 11:13 51°8.373 2°13.329 3.6 66 21.4 101790 67
2004-06-08 11:14 51°8.41 2°13.346 3.4 61 21.4 101790 66
2004-06-08 11:15 51°8.44 2°13.371 3.2 56 21.6 101790 65
2004-06-08 11:16 51°8.467 2°13.406 3.1 52 21.9 101790 64
2004-06-08 11:17 51°8.493 2°13.45 3.6 44 22.1 101790 63
2004-06-08 11:18 51°8.517 2°13.5 3.3 43 22.2 101790 63
2004-06-08 11:19 51°8.537 2°13.56 4.2 35 22.3 101790 63
2004-06-08 11:20 51°8.554 2°13.615 3.9 38 22.1 101790 64
2004-06-08 11:21 51°8.569 2°13.671 3.9 32 22 101790 64
2004-06-08 11:22 51°8.584 2°13.73 3.6 35 22 101790 64
2004-06-08 11:23 51°8.596 2°13.784 3.6 32 22 101790 64
2004-06-08 11:24 51°8.606 2°13.844 3.5 37 22.2 101790 63
2004-06-08 11:25 51°8.618 2°13.903 3.9 41 22.2 101790 62
2004-06-08 11:26 51°8.632 2°13.961 3.5 52 22.3 101790 62
2004-06-08 11:27 51°8.645 2°14.017 3 58 22.5 101790 61
2004-06-08 11:28 51°8.663 2°14.071 2.7 64 22.8 101780 60
2004-06-08 11:29 51°8.68 2°14.124 3.2 34 22.9 101780 59
2004-06-08 11:30 51°8.688 2°14.18 4.2 25 22.9 101780 60
2004-06-08 11:31 51°8.691 2°14.243 3.8 37 22.6 101780 62
2004-06-08 11:32 51°8.699 2°14.311 3.5 30 22.4 101780 62
2004-06-08 11:33 51°8.706 2°14.382 3.4 34 22.4 101780 62
2004-06-08 11:34 51°8.711 2°14.455 3.5 31 22.5 101780 61
2004-06-08 11:35 51°8.716 2°14.529 3 50 22.6 101780 61
2004-06-08 11:36 51°8.722 2°14.602 4.3 32 22.8 101780 60
2004-06-08 11:37 51°8.728 2°14.676 5.3 23 22.8 101780 60
2004-06-08 11:38 51°8.734 2°14.75 3.6 39 22.6 101770 61
2004-06-08 11:39 51°8.739 2°14.832 3.5 34 23 101770 59
2004-06-08 11:40 51°8.742 2°14.909 3.7 38 23.1 101770 58
2004-06-08 11:41 51°8.746 2°14.985 3.5 46 23.2 101770 58
2004-06-08 11:42 51°8.749 2°15.062 3.8 36 23.1 101770 58
2004-06-08 11:43 51°8.749 2°15.138 4 46 23.2 101770 57
2004-06-08 11:44 51°8.741 2°15.21 4 47 23.2 101770 57
2004-06-08 11:45 51°8.724 2°15.276 4.1 44 23.2 101770 58
2004-06-08 11:46 51°8.697 2°15.335 4 23 23 101770 59
2004-06-08 11:47 51°8.659 2°15.38 3.9 34 22.9 101770 58
2004-06-08 11:48 51°8.617 2°15.392 3.7 25 23.1 101770 57
2004-06-08 11:49 51°8.578 2°15.378 3.9 17 23.4 101760 56
2004-06-08 11:50 51°8.545 2°15.36 3.9 30 23.7 101760 55
2004-06-08 11:51 51°8.52 2°15.35 3.9 57 23.8 101760 54
2004-06-08 11:52 51°8.506 2°15.345 3.3 50 23.8 101760 54
2004-06-08 11:53 51°8.498 2°15.342 3 63 23.5 101760 56
2004-06-08 11:54 51°8.497 2°15.34 3 105 23.2 101760 57
2004-06-08 11:55 51°8.508 2°15.332 2.5 128 23.2 101760 57
2004-06-08 11:56 51°8.526 2°15.31 2.2 147 23.2 101760 57
2004-06-08 11:57 51°8.548 2°15.271 1.9 165 23.3 101760 57
2004-06-08 11:58 51°8.569 2°15.217 1.4 192 23.3 101760 57
2004-06-08 11:59 51°8.587 2°15.143 2.5 239 23.3 101760 56
2004-06-08 12:00 51°8.595 2°15.059 4.5 269 23.6 101750 55
2004-06-08 12:01 51°8.592 2°14.973 3.8 285 23.8 101750 54
2004-06-08 12:02 51°8.574 2°14.881 4.5 330 23.9 101750 54
2004-06-08 12:03 51°8.516 2°14.831 5.4 20 24 101750 53
2004-06-08 12:04 51°8.376 2°14.878 9.3 8 24 101740 53
2004-06-08 12:05 51°8.186 2°14.879 9.8 6 23.8 101730 53
2004-06-08 12:06 51°7.965 2°14.821 10.1 1 23.7 101740 54
2004-06-08 12:07 51°7.75 2°14.652 9.8 359 23.4 101730 55
2004-06-08 12:08 51°7.551 2°14.455 9 6 23.2 101740 56
2004-06-08 12:09 51°7.442 2°14.466 4.1 74 22.9 101740 57
2004-06-08 12:10 51°7.431 2°14.528 2.2 136 22.6 101750 58
2004-06-08 12:11 51°7.446 2°14.566 2.4 137 22.6 101750 58
2004-06-08 12:12 51°7.458 2°14.615 3.4 102 22.8 101740 57
2004-06-08 12:13 51°7.449 2°14.681 3.8 98 22.9 101740 57
2004-06-08 12:14 51°7.427 2°14.751 3.7 94 22.9 101740 57
2004-06-08 12:15 51°7.397 2°14.817 3.5 88 22.8 101740 57
2004-06-08 12:16 51°7.378 2°14.879 2.8 104 22.8 101740 57
2004-06-08 12:17 51°7.378 2°14.939 3.1 128 22.8 101740 57
2004-06-08 12:18 51°7.386 2°14.999 3 116 22.9 101740 57
2004-06-08 12:19 51°7.402 2°15.057 2.8 126 23.2 101750 56
2004-06-08 12:20 51°7.422 2°15.112 3.2 127 23.4 101740 55
2004-06-08 12:21 51°7.437 2°15.172 2.8 137 23.6 101740 54
2004-06-08 12:22 51°7.452 2°15.231 2.6 122 23.8 101750 53
2004-06-08 12:23 51°7.467 2°15.291 2.2 115 24 101750 53
2004-06-08 12:24 51°7.482 2°15.349 2.7 135 24 101750 53
2004-06-08 12:25 51°7.496 2°15.408 2.5 135 24.1 101740 53
2004-06-08 12:26 51°7.51 2°15.468 2.5 131 24.2 101740 52
2004-06-08 12:27 51°7.525 2°15.527 2.3 127 24.3 101750 52
2004-06-08 12:28 51°7.54 2°15.585 2.3 135 24.3 101750 52
2004-06-08 12:29 51°7.557 2°15.647 2.2 127 24.4 101750 52
2004-06-08 12:30 51°7.574 2°15.709 2 124 24.5 101740 51
2004-06-08 12:31 51°7.593 2°15.77 2.3 100 24.5 101740 51
2004-06-08 12:32 51°7.611 2°15.832 2.6 109 24.4 101750 52
2004-06-08 12:33 51°7.631 2°15.894 2.9 117 24.1 101740 52
2004-06-08 12:34 51°7.65 2°15.959 3.2 124 24.1 101740 52
2004-06-08 12:35 51°7.67 2°16.023 2.8 113 24.2 101740 52
2004-06-08 12:36 51°7.69 2°16.088 2.8 124 24.2 101740 52
2004-06-08 12:37 51°7.71 2°16.15 2.8 118 24.2 101740 52
2004-06-08 12:38 51°7.732 2°16.216 2.4 122 24.2 101740 52
2004-06-08 12:39 51°7.755 2°16.281 1.7 109 24.2 101740 52
2004-06-08 12:40 51°7.778 2°16.346 1.7 120 24.2 101740 52
2004-06-08 12:41 51°7.801 2°16.408 2.1 110 24.1 101740 52
2004-06-08 12:42 51°7.825 2°16.475 1.7 114 24.1 101740 53
2004-06-08 12:43 51°7.849 2°16.54 1.7 115 24 101740 53
2004-06-08 12:44 51°7.874 2°16.606 1.4 105 24 101740 53
2004-06-08 12:45 51°7.899 2°16.671 1.6 120 24 101740 53
2004-06-08 12:46 51°7.924 2°16.736 1.2 113 24 101730 53
2004-06-08 12:47 51°7.948 2°16.801 0.9 115 24.1 101740 53
2004-06-08 12:48 51°7.97 2°16.866 1.4 108 24.1 101740 52
2004-06-08 12:49 51°7.985 2°16.936 2.1 77 24.2 101740 52
2004-06-08 12:50 51°7.994 2°17.009 3 89 24.1 101730 52
2004-06-08 12:51 51°7.995 2°17.083 2.6 71 24.1 101730 52
2004-06-08 12:52 51°7.987 2°17.149 2.2 76 24.2 101740 52
2004-06-08 12:53 51°7.97 2°17.192 2.6 65 24.2 101730 52
2004-06-08 12:54 51°7.949 2°17.237 2.5 74 24.2 101730 52
2004-06-08 12:55 51°8.007 2°17.328 3 19 24.2 101740 52
2004-06-08 12:56 51°8.106 2°17.552 5.1 30 24.2 101730 52
2004-06-08 12:57 51°8.121 2°17.856 5.3 29 24 101730 52
2004-06-08 12:58 51°8.136 2°18.167 5.3 29 24 101730 52
2004-06-08 12:59 51°8.146 2°18.469 5.8 16 24 101730 53
2004-06-08 13:00 51°8.156 2°18.795 5.7 12 23.4 101730 55
2004-06-08 13:01 51°8.163 2°19.107 5.3 13 23.3 101730 56
2004-06-08 13:02 51°8.168 2°19.432 5.5 18 23.3 101730 55
2004-06-08 13:03 51°8.172 2°19.754 5 25 23.6 101730 55
2004-06-08 13:04 51°8.207 2°19.964 0.8 16 23.6 101730 55
2004-06-08 13:05 51°8.246 2°20.029 1 234 23.9 101730 54
2004-06-08 13:06 51°8.281 2°20.057 0.9 241 24.3 101730 52
2004-06-08 13:07 51°8.311 2°20.09 0.7 207 24.5 101730 51
2004-06-08 13:08 51°8.329 2°20.14 0.4 175 24.8 101730 51
2004-06-08 13:09 51°8.341 2°20.207 1.2 67 25 101720 50
2004-06-08 13:10 51°8.353 2°20.281 1.4 68 24.6 101730 51
2004-06-08 13:11 51°8.37 2°20.355 1 75 24.1 101720 54
2004-06-08 13:12 51°8.386 2°20.43 1 73 23.8 101730 54
2004-06-08 13:13 51°8.397 2°20.51 1.1 67 23.9 101720 53
2004-06-08 13:14 51°8.41 2°20.592 1.2 66 24.1 101720 52
2004-06-08 13:15 51°8.421 2°20.67 1.2 73 24.2 101720 52
2004-06-08 13:16 51°8.434 2°20.75 1.6 74 24.2 101720 52
2004-06-08 13:17 51°8.446 2°20.828 1.9 67 24.1 101720 53
2004-06-08 13:18 51°8.458 2°20.909 1.3 64 23.9 101720 53
2004-06-08 13:19 51°8.471 2°20.989 2.9 57 23.9 101720 53
2004-06-08 13:20 51°8.483 2°21.072 1.7 60 23.8 101710 54
2004-06-08 13:21 51°8.498 2°21.156 1.1 76 23.8 101710 54
2004-06-08 13:22 51°8.511 2°21.236 1.1 78 24 101710 52
2004-06-08 13:23 51°8.525 2°21.32 1.5 53 24.2 101710 52
2004-06-08 13:24 51°8.538 2°21.408 1.1 56 24.4 101710 51
2004-06-08 13:25 51°8.55 2°21.49 0.9 66 24.7 101710 50
2004-06-08 13:26 51°8.563 2°21.578 1.2 82 24.9 101710 49
2004-06-08 13:27 51°8.583 2°21.658 0.9 50 25 101710 49
2004-06-08 13:28 51°8.611 2°21.734 0.8 42 25.2 101700 49
2004-06-08 13:29 51°8.64 2°21.806 0.9 43 25.4 101710 49
2004-06-08 13:30 51°8.669 2°21.868 3.8 71 25.4 101700 49
2004-06-08 13:31 51°8.7 2°21.928 1.7 72 24.5 101700 52
2004-06-08 13:32 51°8.731 2°21.989 1.3 68 24.3 101700 52
2004-06-08 13:33 51°8.761 2°22.052 0.9 78 24.3 101700 52
2004-06-08 13:34 51°8.796 2°22.1 0.6 77 24.3 101700 53
2004-06-08 13:35 51°8.838 2°22.133 0.4 76 24.2 101700 53
2004-06-08 13:36 51°8.883 2°22.156 0.7 68 24.1 101710 54
2004-06-08 13:37 51°8.928 2°22.181 0.7 59 24 101710 54
2004-06-08 13:38 51°8.97 2°22.212 0.5 59 23.8 101700 54
2004-06-08 13:39 51°9.012 2°22.246 0.2 96 23.7 101700 55
2004-06-08 13:40 51°9.053 2°22.278 1.1 158 23.8 101700 54
2004-06-08 13:41 51°9.091 2°22.315 0.9 135 24 101700 53
2004-06-08 13:42 51°9.119 2°22.349 1.3 140 24.2 101700 53
2004-06-08 13:43 51°9.139 2°22.383 1.8 152 24.4 101690 52
2004-06-08 13:44 51°9.154 2°22.414 2 162 24.6 101690 51
2004-06-08 13:45 51°9.164 2°22.44 2 152 24.8 101700 50
2004-06-08 13:46 51°9.174 2°22.463 2.1 161 25 101690 50
2004-06-08 13:47 51°9.19 2°22.485 0.5 182 25 101690 50
2004-06-08 13:48 51°9.222 2°22.493 1.8 251 25.1 101690 50
2004-06-08 13:49 51°9.255 2°22.475 4.1 283 25.2 101700 49
2004-06-08 13:50 51°9.278 2°22.431 4.9 310 25.2 101700 50
2004-06-08 13:51 51°9.29 2°22.375 6.2 322 25.2 101700 50
2004-06-08 13:52 51°9.29 2°22.317 6.8 354 24.9 101700 51
2004-06-08 13:53 51°9.276 2°22.257 8 20 24.5 101690 53
2004-06-08 13:54 51°9.254 2°22.218 7.7 44 24 101690 54
2004-06-08 13:55 51°9.226 2°22.198 7.7 83 23.5 101690 56
2004-06-08 13:56 51°9.195 2°22.191 6.7 100 23.2 101690 57
2004-06-08 13:57 51°9.161 2°22.196 5.6 122 23 101700 57
2004-06-08 13:58 51°9.125 2°22.245 2.1 198 22.7 101700 58
2004-06-08 13:59 51°9.161 2°22.369 5.1 294 22.5 101700 59
2004-06-08 14:00 51°9.288 2°22.607 6.6 307 22.4 101700 59
2004-06-08 14:01 51°9.422 2°22.86 5.8 306 22.4 101700 59
2004-06-08 14:02 51°9.565 2°23.133 6 303 22.4 101700 59
2004-06-08 14:03 51°9.701 2°23.395 5.6 306 22.4 101700 59
2004-06-08 14:04 51°9.841 2°23.668 4.9 306 22.4 101690 59
2004-06-08 14:05 51°9.957 2°23.956 4.8 309 22.3 101700 59
2004-06-08 14:06 51°10.077 2°24.255 5 307 22.3 101690 60
2004-06-08 14:07 51°10.197 2°24.55 5.4 312 22.2 101690 60
2004-06-08 14:08 51°10.314 2°24.842 4.8 313 22.3 101690 60
2004-06-08 14:09 51°10.416 2°25.155 4.2 309 22.2 101690 60
2004-06-08 14:10 51°10.519 2°25.479 4.2 306 22.3 101690 60
2004-06-08 14:11 51°10.621 2°25.789 4.3 304 22.4 101690 59
2004-06-08 14:12 51°10.723 2°26.097 4.3 310 22.5 101680 59
2004-06-08 14:13 51°10.824 2°26.39 4.4 43 22.5 101680 59
2004-06-08 14:14 51°10.917 2°26.699 3.7 321 22.5 101690 59
2004-06-08 14:15 51°11.002 2°27.015 3.6 320 22.4 101690 60
2004-06-08 14:16 51°11.09 2°27.345 3.8 313 22.5 101680 60
2004-06-08 14:17 51°11.176 2°27.665 3.9 298 22.5 101680 60
2004-06-08 14:18 51°11.26 2°27.98 4.1 288 22.7 101680 59
2004-06-08 14:19 51°11.345 2°28.3 4.1 287 22.8 101680 58
2004-06-08 14:20 51°11.427 2°28.61 3.9 291 23 101680 58
2004-06-08 14:21 51°11.517 2°28.942 4 295 23 101680 58
2004-06-08 14:22 51°11.605 2°29.269 3.8 294 23 101670 58
2004-06-08 14:23 51°11.691 2°29.59 3.7 291 23 101670 58
2004-06-08 14:24 51°11.777 2°29.905 3.5 305 23.1 101670 58
2004-06-08 14:25 51°11.867 2°30.232 3.5 313 23.1 101670 60
2004-06-08 14:26 51°11.954 2°30.555 3.2 324 23.1 101680 60
2004-06-08 14:27 51°12.04 2°30.867 3.3 336 23.1 101670 60
2004-06-08 14:28 51°12.136 2°31.224 2.7 319 23.1 101680 60
2004-06-08 14:29 51°12.226 2°31.554 3 325 23.1 101670 60
2004-06-08 14:30 51°12.315 2°31.881 3.1 320 23.1 101680 60
2004-06-08 14:31 51°12.403 2°32.208 3.1 40 23.2 101680 59
2004-06-08 14:32 51°12.493 2°32.536 3 317 23.3 101670 59
2004-06-08 14:33 51°12.581 2°32.86 2.8 314 23.4 101680 58
2004-06-08 14:34 51°12.673 2°33.196 2.3 322 23.5 101670 58
2004-06-08 14:35 51°12.763 2°33.526 2.3 42 23.6 101670 58
2004-06-08 14:36 51°12.853 2°33.851 2.3 305 23.7 101670 58
2004-06-08 14:37 51°12.945 2°34.185 2.5 293 23.7 101670 58
2004-06-08 14:38 51°13.037 2°34.51 2.3 310 23.8 101670 59
2004-06-08 14:39 51°13.127 2°34.835 2.3 308 23.7 101670 58
2004-06-08 14:40 51°13.216 2°35.159 2.1 302 23.8 101670 59
2004-06-08 14:41 51°13.305 2°35.486 1.9 227 23.8 101670 59
2004-06-08 14:42 51°13.394 2°35.807 1.9 309 23.8 101670 59
2004-06-08 14:43 51°13.482 2°36.143 1.9 313 23.9 101670 59
2004-06-08 14:44 51°13.58 2°36.519 1.9 320 23.8 101670 60
2004-06-08 14:45 51°13.664 2°36.851 1.6 320 23.8 101670 61
2004-06-08 14:46 51°13.748 2°37.183 1.3 331 23.8 101670 60
2004-06-08 14:47 51°13.83 2°37.51 1.3 315 23.8 101660 60
2004-06-08 14:48 51°13.912 2°37.845 1.6 324 23.8 101660 60
2004-06-08 14:49 51°13.978 2°38.191 1.6 341 23.8 101660 60
2004-06-08 14:50 51°14.041 2°38.538 1.2 338 23.9 101670 60
2004-06-08 14:51 51°14.107 2°38.892 1.5 340 23.9 101670 60
2004-06-08 14:52 51°14.171 2°39.243 5 355 24 101670 60
2004-06-08 14:53 51°14.237 2°39.592 4.5 359 23.8 101670 62
2004-06-08 14:54 51°14.305 2°39.942 2.6 4 23.7 101670 61
2004-06-08 14:55 51°14.353 2°40.301 2.5 33 23.7 101670 60
2004-06-08 14:56 51°14.354 2°40.666 1.6 20 23.8 101660 60
2004-06-08 14:57 51°14.354 2°41.039 2 11 23.8 101660 60
2004-06-08 14:58 51°14.351 2°41.42 2.4 13 23.9 101660 59
2004-06-08 14:59 51°14.347 2°41.794 2.6 16 23.8 101660 61
2004-06-08 15:00 51°14.352 2°42.165 1.9 3 23.8 101660 61
2004-06-08 15:01 51°14.386 2°42.531 2.2 18 23.8 101660 60
2004-06-08 15:02 51°14.418 2°42.896 1.9 12 23.9 101660 60
2004-06-08 15:03 51°14.448 2°43.256 2.2 14 24 101660 60
2004-06-08 15:04 51°14.476 2°43.621 2.4 7 24.1 101660 60
2004-06-08 15:05 51°14.507 2°44.002 2.4 12 24.2 101660 60
2004-06-08 15:06 51°14.543 2°44.421 3 17 24.2 101650 61
2004-06-08 15:07 51°14.573 2°44.791 3.6 20 24.3 101660 61
2004-06-08 15:08 51°14.606 2°45.163 2.5 16 24.3 101660 61
2004-06-08 15:09 51°14.641 2°45.562 2.7 20 24.3 101660 61
2004-06-08 15:10 51°14.676 2°45.961 2.6 10 24.2 101660 60
2004-06-08 15:11 51°14.709 2°46.337 3 14 24.2 101650 60
2004-06-08 15:12 51°14.744 2°46.706 5.2 7 24.1 101650 62
2004-06-08 15:13 51°14.755 2°47.09 4.3 11 24 101650 64
2004-06-08 15:14 51°14.76 2°47.468 4.4 13 23.9 101650 64
2004-06-08 15:15 51°14.767 2°47.846 4 11 23.8 101640 63
2004-06-08 15:16 51°14.775 2°48.22 3.7 7 23.7 101640 63
2004-06-08 15:17 51°14.784 2°48.592 4.3 13 23.7 101650 64
2004-06-08 15:18 51°14.794 2°48.965 4.5 6 23.8 101640 64
2004-06-08 15:19 51°14.812 2°49.338 5.6 11 23.9 101640 65
2004-06-08 15:20 51°14.83 2°49.71 5.3 8 23.9 101640 64
2004-06-08 15:21 51°14.85 2°50.083 4.6 13 23.9 101640 62
2004-06-08 15:22 51°14.869 2°50.457 4.4 12 24 101640 63
2004-06-08 15:23 51°14.888 2°50.827 3.9 359 24 101640 62
2004-06-08 15:24 51°14.908 2°51.216 4.2 357 24.2 101630 60
2004-06-08 15:25 51°14.926 2°51.586 4.3 355 24.5 101630 57
2004-06-08 15:26 51°14.945 2°51.963 4.4 353 24.7 101630 58
2004-06-08 15:27 51°14.964 2°52.339 4.3 348 24.7 101630 57
2004-06-08 15:29 51°14.978 2°52.74 4 352 24.9 101630 56
2004-06-08 15:30 51°14.935 2°53.151 4 354 25 101630 57
2004-06-08 15:31 51°14.895 2°53.52 3.9 3 24.9 101630 61
2004-06-08 15:32 51°14.819 2°53.869 3.8 19 24.5 101630 62
2004-06-08 15:33 51°14.713 2°54.193 4.4 24 24.1 101630 64